Skip Page Navigation
NASA JPL Caltech
NASA Logo - Jet Propulsion Laboratory + View the NASA Portal
+ Near-Earth Object (NEO) Program
Search JPL
JPL Home Earth Solar System Stars & Galaxies Technology
JPL Solar System Dynamics
BODIES ORBITS EPHEMERIDES TOOLS PHYSICAL DATA DISCOVERY FAQ SITE MAP
JPL Small-Body Database Browser
Search: [ help ]  
3892 Dezso (1941 HD)
Classification: Main-belt Asteroid          SPK-ID: 2003892
Ephemeris | Orbit Diagram | Orbital Elements | Physical Parameters | Discovery Circumstances | Close-Approach Data ]

[ show orbit diagram ]
Orbital Elements at Epoch 2457000.5 (2014-Dec-09.0) TDB
Reference: JPL 7 (heliocentric ecliptic J2000)
 Element Value Uncertainty (1-sigma)   Units 
e .1410342333055508 5.1253e-08  
a 2.604689899650166 1.9202e-08 AU
q 2.237339456654293 1.3964e-07 AU
i 13.76709071688464 7.7238e-06 deg
node 159.5618881726232 2.0809e-05 deg
peri 71.88653530177081 3.6721e-05 deg
M 161.6000030726416 3.4181e-05 deg
tp 2456311.258641552437
(2013-Jan-18.75864155)
0.00014158 JED
period 1535.438640614295
4.20
1.6979e-05
4.649e-08
d
yr
n .2344606879607849 2.5928e-09 deg/d
Q 2.972040342646038 2.1911e-08 AU
  Orbit Determination Parameters
   # obs. used (total)      1230  
   data-arc span      26941 days (73.76 yr)  
   first obs. used      1941-04-19  
   last obs. used      2015-01-22  
   planetary ephem.      DE431  
   SB-pert. ephem.      SB431-BIG16  
   condition code      0  
   fit RMS      .51759  
   data source      ORB  
   producer      Otto Matic  
   solution date      2015-Feb-04 13:08:00  

Additional Information
 Earth MOID = 1.27452 AU 
 T_jup = 3.358 
[ show covariance matrix ]

Ephemeris | Orbit Diagram | Orbital Elements | Physical Parameters | Discovery Circumstances | Close-Approach Data ]

Physical Parameter Table
Parameter Symbol Value Units Sigma Reference Notes
absolute magnitude H 12.5 mag n/a MPO259365  

3892 Dezso (1941 HD)          Discovered 1941-Apr-19 by Oterma, L. at Turku
Reference: DISCOVERY.DBLast Updated: 2003-08-29

[ show close-approach data ]
Alternate Designations
 1941 HD = 1970 EA2 = 1980 TO1 = 1983 HD1 = 1987 DD1 
Ephemeris | Orbit Diagram | Orbital Elements | Physical Parameters | Discovery Circumstances | Close-Approach Data ]
ABOUT SSD CREDITS/AWARDS PRIVACY/COPYRIGHT GLOSSARY LINKS
FirstGov 2015-Mar-02 07:22 UT
(server date/time)  
NASA Home Page
Site Manager:   Ryan S. Park
Webmaster  Alan B. Chamberlin